Terug naar catalogus

STARLINK-31587

ActiefCommunicatieVLEO
NORAD 59570·PAYLOAD·🇺🇸 United States

Gelanceerd Apr 23, 2024 vanaf Cape Canaveral Space Force Station

Loading…

Volgende Passages (komende 24 uur)

TLE

VersSource: CelesTrak SupGP

Epoch: Sep 14, 2026, 21:36 UTC

1 59570C 24076G   26257.90048611  .00034173  00000+0  12369-2 0  2573
2 59570  43.0041  20.6064 0001982 280.6220 238.9178 15.27583620    16

Volg STARLINK-31587 in realtime met AllMySat

Download on the App Store